| time (UTC) | temp C | wind direction | speed KPH | gust KPH | rain 1hr cm | rain 24hr cm | rain mn cm | humidity % | barometer mb |
| 20260502170237 | 32 | 202 | 6.4 | 16.1 | 0.00 | 0.00 | 0.00 | 67 | 1013.1 |
| 20260502163103 | 32 | 225 | 12.9 | 30.6 | 0.00 | 0.00 | 0.00 | 69 | 1013.2 |
| 20260502162103 | 33 | 225 | 1.6 | 3.2 | 0.00 | 0.00 | 0.00 | 67 | 1013.1 |
| 20260502161106 | 32 | 0 | 35.4 | 82.1 | 0.00 | 0.00 | 0.00 | 68 | 1013.1 |
| 20260502152211 | 32 | 67 | 54.7 | 122.3 | 0.00 | 0.00 | 0.00 | 68 | 1013.1 |
| 20260502151212 | 32 | 0 | 9.7 | 22.5 | 0.00 | 0.00 | 0.00 | 68 | 1013.2 |
| 20260502122909 | 33 | 0 | 3.2 | 8.0 | 0.00 | 0.00 | 0.00 | 62 | 1013.1 |
| 20260502121909 | 33 | 112 | 6.4 | 16.1 | 0.00 | 0.00 | 0.00 | 62 | 1013.2 |
| 20260502120438 | 33 | 315 | 8.0 | 17.7 | 0.00 | 0.00 | 0.00 | 62 | 1013.1 |
| 20260502115436 | 33 | 0 | 6.4 | 16.1 | 0.00 | 0.00 | 0.00 | 62 | 1013.2 |
| 20260502114433 | 33 | 67 | 3.2 | 8.0 | 0.00 | 0.00 | 0.00 | 63 | 1013.2 |
| 20260502113236 | 33 | 225 | 24.1 | 56.3 | 0.00 | 0.00 | 0.00 | 63 | 1013.2 |
| 20260502112234 | 34 | 67 | 9.7 | 22.5 | 0.00 | 0.00 | 0.00 | 59 | 1013.2 |
| 20260502111127 | 34 | 225 | 0.0 | 3.2 | 0.00 | 0.00 | 0.00 | 60 | 1013.2 |
| 20260502105138 | 35 | 225 | 1.6 | 3.2 | 0.00 | 0.00 | 0.00 | 59 | 1013.1 |
| 20260502103703 | 35 | 112 | 3.2 | 8.0 | 0.00 | 0.00 | 0.00 | 60 | 1013.1 |
| 20260502102704 | 35 | 67 | 3.2 | 9.7 | 0.00 | 0.00 | 0.00 | 62 | 1013.1 |
| 20260502101645 | 33 | 315 | 8.0 | 19.3 | 0.00 | 0.00 | 0.00 | 63 | 1013.2 |
| 20260502100644 | 34 | 202 | 3.2 | 8.0 | 0.00 | 0.00 | 0.00 | 62 | 1013.2 |
| 20260502090552 | 34 | 67 | 8.0 | 17.7 | 0.00 | 0.00 | 0.00 | 60 | 1013.1 |
| 20260502070714 | 36 | 112 | 20.9 | 48.3 | 0.00 | 0.00 | 0.00 | 56 | 1013.2 |
| 20260502065712 | 35 | 112 | 4.8 | 11.3 | 0.00 | 0.00 | 0.00 | 57 | 1013.1 |
| 20260502064709 | 36 | 112 | 8.0 | 19.3 | 0.00 | 0.00 | 0.00 | 56 | 1013.1 |
| 20260502063432 | 36 | 225 | 4.8 | 11.3 | 0.00 | 0.00 | 0.00 | 57 | 1013.1 |
| 20260502062326 | 35 | 112 | 14.5 | 32.2 | 0.00 | 0.00 | 0.00 | 58 | 1013.2 |
| 20260502061327 | 36 | 202 | 12.9 | 27.4 | 0.00 | 0.00 | 0.00 | 59 | 1013.1 |
| 20260502060324 | 35 | 225 | 9.7 | 20.9 | 0.00 | 0.00 | 0.00 | 57 | 1013.1 |
| 20260502054528 | 35 | 225 | 4.8 | 11.3 | 0.00 | 0.00 | 0.00 | 57 | 1013.1 |
| 20260502053331 | 35 | 135 | 40.2 | 91.7 | 0.00 | 0.00 | 0.00 | 58 | 1013.2 |
| 20260502052331 | 35 | 112 | 17.7 | 41.8 | 0.00 | 0.00 | 0.00 | 59 | 1013.2 |
| 20260502051331 | 35 | 315 | 40.2 | 90.1 | 0.00 | 0.00 | 0.00 | 60 | 1013.2 |
| 20260502050331 | 35 | 225 | 12.9 | 29.0 | 0.00 | 0.00 | 0.00 | 61 | 1013.1 |
| 20260502045331 | 35 | 202 | 0.0 | 0.0 | 0.00 | 0.00 | 0.00 | 62 | 1013.2 |
| 20260502044332 | 35 | 112 | 0.0 | 0.0 | 0.00 | 0.00 | 0.00 | 61 | 1013.1 |
| 20260502043329 | 35 | 0 | 0.0 | 0.0 | 0.00 | 0.00 | 0.00 | 62 | 1013.2 |
| 20260502042326 | 35 | 315 | 0.0 | 0.0 | 0.00 | 0.00 | 0.00 | 62 | 1013.1 |
| 20260502041325 | 35 | 112 | 0.0 | 0.0 | 0.00 | 0.00 | 0.00 | 60 | 1013.1 |
| 20260502040326 | 36 | 112 | 0.0 | 0.0 | 0.00 | 0.00 | 0.00 | 60 | 1013.1 |
| 20260502035324 | 35 | 225 | 0.0 | 0.0 | 0.00 | 0.00 | 0.00 | 59 | 1013.1 |
| 20260502034325 | 36 | 0 | 0.0 | 0.0 | 0.00 | 0.00 | 0.00 | 59 | 1013.2 |
| 20260502033111 | 35 | 0 | 0.0 | 0.0 | 0.00 | 0.00 | 0.00 | 60 | 1013.1 |
| 20260502032111 | 35 | 67 | 0.0 | 0.0 | 0.00 | 0.00 | 0.00 | 61 | 1013.2 |
| 20260502031111 | 35 | 0 | 0.0 | 0.0 | 0.00 | 0.00 | 0.00 | 61 | 1013.1 |
| 20260502030111 | 35 | 0 | 0.0 | 0.0 | 0.00 | 0.00 | 0.00 | 62 | 1013.2 |
| 20260502025110 | 34 | 112 | 0.0 | 0.0 | 0.00 | 0.00 | 0.00 | 65 | 1013.2 |
| 20260502024109 | 33 | 67 | 1.6 | 4.8 | 0.00 | 0.00 | 0.00 | 66 | 1013.1 |
| 20260502023110 | 33 | 225 | 12.9 | 30.6 | 0.00 | 0.00 | 0.00 | 68 | 1013.1 |
| 20260502022106 | 32 | 0 | 6.4 | 14.5 | 0.00 | 0.00 | 0.00 | 67 | 1013.1 |
| 20260502021105 | 32 | 225 | 1.6 | 3.2 | 0.00 | 0.00 | 0.00 | 65 | 1013.2 |
| 20260502014809 | 32 | 135 | 0.0 | 0.0 | 0.00 | 0.00 | 0.00 | 64 | 1013.2 |
| 20260502013808 | 32 | 225 | 0.0 | 3.2 | 0.00 | 0.00 | 0.00 | 62 | 1013.2 |
| 20260502012807 | 32 | 225 | 4.8 | 9.7 | 0.00 | 0.00 | 0.00 | 61 | 1013.2 |
| 20260502011250 | 31 | 225 | 0.0 | 1.6 | 0.00 | 0.00 | 0.00 | 63 | 1013.1 |
| 20260502010250 | 31 | 0 | 0.0 | 1.6 | 0.00 | 0.00 | 0.00 | 63 | 1013.1 |
| 20260502005249 | 31 | 112 | 0.0 | 3.2 | 0.00 | 0.00 | 0.00 | 63 | 1013.1 |
| 20260502004249 | 31 | 270 | 0.0 | 0.0 | 0.00 | 0.00 | 0.00 | 65 | 1013.1 |
| 20260502003249 | 31 | 112 | 1.6 | 3.2 | 0.00 | 0.00 | 0.00 | 64 | 1013.2 |
| 20260502002248 | 31 | 270 | 20.9 | 46.7 | 0.00 | 0.00 | 0.00 | 66 | 1013.2 |
| 20260502001249 | 31 | 90 | 11.3 | 27.4 | 0.00 | 0.00 | 0.00 | 65 | 1013.1 |
| 20260502000248 | 31 | 0 | 0.0 | 0.0 | 0.00 | 0.00 | 0.00 | 66 | 1013.1 |
| 20260501235247 | 31 | 0 | 6.4 | 16.1 | 0.00 | 0.00 | 0.00 | 67 | 1013.2 |
| 20260501234247 | 31 | 112 | 0.0 | 0.0 | 0.00 | 0.00 | 0.00 | 66 | 1013.1 |
| 20260501233247 | 31 | 225 | 0.0 | 0.0 | 0.00 | 0.00 | 0.00 | 66 | 1013.1 |
| 20260501232247 | 31 | 112 | 9.7 | 22.5 | 0.00 | 0.00 | 0.00 | 67 | 1013.2 |
| 20260501230447 | 31 | 22 | 19.3 | 41.8 | 0.00 | 0.00 | 0.00 | 73 | 1013.1 |
| 20260501224256 | 32 | 0 | 6.4 | 14.5 | 0.00 | 0.00 | 0.00 | 74 | 1013.1 |
| 20260501223114 | 31 | 0 | 14.5 | 33.8 | 0.00 | 0.00 | 0.00 | 75 | 1013.2 |
| 20260501222115 | 32 | 202 | 6.4 | 16.1 | 0.00 | 0.00 | 0.00 | 73 | 1013.2 |
| 20260501221111 | 32 | 67 | 0.0 | 1.6 | 0.00 | 0.00 | 0.00 | 73 | 1013.1 |
| 20260501220112 | 32 | 202 | 1.6 | 4.8 | 0.00 | 0.00 | 0.00 | 73 | 1013.1 |
| 20260501215111 | 32 | 202 | 6.4 | 17.7 | 0.00 | 0.00 | 0.00 | 73 | 1013.2 |
| 20260501214108 | 32 | 135 | 9.7 | 20.9 | 0.00 | 0.00 | 0.00 | 73 | 1013.2 |
| 20260501213107 | 31 | 315 | 14.5 | 33.8 | 0.00 | 0.00 | 0.00 | 74 | 1013.1 |
| 20260501212106 | 32 | 112 | 11.3 | 25.7 | 0.00 | 0.00 | 0.00 | 73 | 1013.1 |
| 20260501210358 | 32 | 67 | 4.8 | 11.3 | 0.00 | 0.00 | 0.00 | 73 | 1013.2 |
| 20260501205358 | 31 | 67 | 0.0 | 0.0 | 0.00 | 0.00 | 0.00 | 73 | 1013.1 |
| 20260501204357 | 32 | 112 | 0.0 | 0.0 | 0.00 | 0.00 | 0.00 | 73 | 1013.1 |
| 20260501203209 | 32 | 202 | 0.0 | 0.0 | 0.00 | 0.00 | 0.00 | 72 | 1013.2 |
| 20260501202205 | 32 | 67 | 0.0 | 0.0 | 0.00 | 0.00 | 0.00 | 71 | 1013.1 |
| 20260501201205 | 32 | 67 | 0.0 | 0.0 | 0.00 | 0.00 | 0.00 | 71 | 1013.1 |
| 20260501200205 | 32 | 202 | 0.0 | 0.0 | 0.00 | 0.00 | 0.00 | 71 | 1013.1 |
| 20260501195204 | 32 | 0 | 0.0 | 0.0 | 0.00 | 0.00 | 0.00 | 72 | 1013.1 |
| 20260501194202 | 32 | 67 | 0.0 | 0.0 | 0.00 | 0.00 | 0.00 | 71 | 1013.1 |
| 20260501193202 | 32 | 202 | 0.0 | 0.0 | 0.00 | 0.00 | 0.00 | 72 | 1013.2 |
| 20260501192202 | 32 | 67 | 0.0 | 0.0 | 0.00 | 0.00 | 0.00 | 72 | 1013.1 |
| 20260501191200 | 32 | 315 | 0.0 | 0.0 | 0.00 | 0.00 | 0.00 | 72 | 1013.2 |
| 20260501190200 | 32 | 67 | 0.0 | 0.0 | 0.00 | 0.00 | 0.00 | 73 | 1013.1 |
| 20260501185200 | 32 | 67 | 0.0 | 0.0 | 0.00 | 0.00 | 0.00 | 73 | 1013.1 |
| 20260501184200 | 32 | 202 | 0.0 | 0.0 | 0.00 | 0.00 | 0.00 | 73 | 1013.2 |
| 20260501183048 | 32 | 67 | 0.0 | 0.0 | 0.00 | 0.00 | 0.00 | 72 | 1013.1 |
| 20260501182048 | 32 | 315 | 0.0 | 0.0 | 0.00 | 0.00 | 0.00 | 71 | 1013.1 |
| 20260501181049 | 32 | 112 | 0.0 | 0.0 | 0.00 | 0.00 | 0.00 | 72 | 1013.2 |
| 20260501175328 | 32 | 112 | 1.6 | 3.2 | 0.00 | 0.00 | 0.00 | 73 | 1013.1 |
| 20260501174329 | 31 | 0 | 14.5 | 33.8 | 0.00 | 0.00 | 0.00 | 76 | 1013.1 |
| 20260501173328 | 30 | 225 | 19.3 | 45.1 | 0.00 | 0.00 | 0.00 | 81 | 1013.1 |
| 20260501171735 | 30 | 0 | 0.0 | 0.0 | 0.00 | 0.00 | 0.00 | 81 | 1013.2 |